[[{"header":{"parameterUnit":"m.s-1","parameterCategory":1,"la1":30.2991,"la2":30.254,"lo1":-89.0895,"lo2":-89.0444,"dy":0.0017,"dx":0.0017,"nx":28,"ny":28,"refTime":"2024-04-01T09:00:00:Z","depth":0,"parameterNumber":2,"parameterNumberName":"U-component_of_WINDS"},"data":[0,0,0,0,0,0,0,0,0,0,0,0,0,0,0,0,0,0,0,0,0,0,0,0,0,0,0,0,0,0,0,0,0,0,0,0,0,0,0,0,0,0,0,0,0,0,0,0,0,0,0,0,0,0,0,0,0,0,-0.3382,-0.3383,0,-0.352,-0.3522,-0.3523,-0.3608,-0.3608,-0.3609,-0.3609,-0.3749,-0.3752,-0.3755,0,0,0,0,0,0,0,0,0,0,0,0,0,-0.319,-0.3193,-0.3382,-0.3383,-0.3385,-0.352,-0.3522,-0.3524,-0.3608,-0.3608,-0.3609,-0.3609,-0.3748,-0.3752,-0.3756,0,0,0,0,0,0,0,0,0,0,0,0,0,-0.3295,-0.3194,-0.3381,-0.3443,-0.345,-0.3519,-0.3522,-0.3524,-0.3608,-0.3608,-0.3609,-0.361,-0.3746,-0.3751,-0.3756,-0.3774,0,0,-0.3771,-0.3773,0,0,0,0,0,0,0,0,-0.3289,-0.3302,-0.3433,-0.3439,-0.3447,-0.3547,-0.3505,-0.3608,-0.3607,-0.3548,-0.3609,-0.361,-0.3681,-0.3691,-0.3716,-0.378,-0.3786,-0.3772,-0.3775,-0.3777,-0.3778,0,0,0,0,0,0,0,-0.3281,-0.3296,-0.3436,-0.3434,-0.3443,-0.3464,-0.348,-0.3525,-0.3609,-0.3553,-0.356,-0.3575,-0.3685,-0.3711,-0.372,-0.3788,-0.3772,-0.3776,-0.3779,-0.3781,-0.3875,-0.3874,0,0,0,0,0,0,-0.3264,-0.329,-0.3432,-0.344,-0.3368,-0.3467,-0.3484,-0.3514,-0.3609,-0.3624,-0.3574,-0.3578,-0.3702,-0.3714,-0.3725,-0.3752,-0.3777,-0.3782,-0.3784,-0.3875,-0.3874,-0.3874,0,0,0,0,0,0,-0.326,-0.3276,-0.3426,-0.3367,-0.3388,-0.347,-0.3503,-0.3517,-0.3543,-0.3625,-0.364,-0.3585,-0.3703,-0.3718,-0.3761,-0.3758,-0.3784,-0.3788,-0.3876,-0.3875,-0.3874,-0.3806,0,0,0,0,0,0,-0.3254,-0.3274,-0.3282,-0.3366,-0.339,-0.346,-0.3502,-0.3519,-0.3551,-0.3558,-0.3639,-0.3653,-0.3705,-0.3753,-0.3766,-0.3766,-0.3792,-0.3876,-0.3875,-0.3874,-0.3809,-0.3803,-0.3798,0,0,0,0,0,-0.3247,-0.3257,-0.3282,-0.3298,-0.3402,-0.346,-0.3474,-0.3534,-0.3551,-0.3559,-0.3612,-0.3651,-0.3757,-0.3757,-0.3772,-0.3773,-0.3877,-0.3876,-0.3875,-0.3812,-0.3805,-0.3799,0,0,0,0,0,0,-0.3169,-0.3269,-0.3298,-0.3335,-0.3389,-0.3474,-0.3487,-0.3524,-0.3573,-0.3577,-0.3649,-0.3666,-0.3702,-0.3742,-0.3741,-0.3795,-0.3821,-0.3823,-0.3768,-0.3762,-0.3757,-0.3746,-0.3796,0,0,0,0,0,-0.3156,-0.3195,-0.328,-0.3305,-0.3331,-0.3404,-0.3431,-0.3473,-0.3531,-0.3553,-0.361,-0.3664,-0.371,-0.3738,-0.3785,-0.3815,-0.3835,-0.3824,-0.3818,-0.3813,-0.3814,-0.3834,-0.383,-0.387,-0.387,-0.387,0,0,-0.313,-0.3189,-0.321,-0.3291,-0.3337,-0.3376,-0.3422,-0.3461,-0.3491,-0.3559,-0.3604,-0.3647,-0.3712,-0.3749,-0.3768,-0.3783,-0.3807,-0.3812,-0.3807,-0.3811,-0.3832,-0.3829,-0.3825,-0.387,-0.387,-0.387,0,0,-0.3102,-0.3151,-0.3178,-0.3223,-0.3293,-0.3341,-0.3347,-0.3428,-0.3459,-0.3505,-0.3558,-0.3594,-0.3671,-0.3715,-0.3748,-0.3738,-0.3775,-0.3751,-0.3723,-0.3741,-0.3738,-0.3735,-0.3732,-0.373,-0.3751,-0.3751,-0.3751,0,-0.3061,-0.3122,-0.3186,-0.3223,-0.3257,-0.3322,-0.3349,-0.339,-0.3471,-0.3493,-0.3509,-0.3607,-0.3656,-0.3705,-0.3702,-0.3726,-0.3736,-0.3742,-0.3733,-0.3731,-0.373,-0.3728,-0.3726,-0.3748,-0.3748,-0.3748,-0.3749,0,-0.3068,-0.3109,-0.3122,-0.32,-0.3235,-0.3267,-0.3336,-0.3364,-0.3403,-0.3449,-0.3495,-0.3556,-0.3616,-0.3631,-0.3669,-0.3685,-0.3693,-0.372,-0.3747,-0.3722,-0.3721,-0.372,-0.3743,-0.3744,-0.3745,-0.3746,0,0,-0.2995,-0.3108,-0.3111,-0.3147,-0.3229,-0.3262,-0.3297,-0.3356,-0.338,-0.3433,-0.3464,-0.3528,-0.3554,-0.3591,-0.3634,-0.365,-0.3639,-0.3676,-0.3679,-0.3667,-0.3662,-0.3641,-0.3639,-0.3664,-0.3665,-0.3665,-0.3656,0,-0.2979,-0.3045,-0.3104,-0.3148,-0.3187,-0.325,-0.328,-0.3333,-0.3378,-0.3417,-0.3467,-0.3511,-0.3542,-0.3565,-0.3584,-0.3636,-0.3639,-0.3638,-0.3694,-0.3695,-0.3675,-0.3638,-0.3616,-0.3605,-0.3656,-0.3656,-0.3656,0,-0.297,-0.3022,-0.307,-0.3148,-0.3167,-0.3193,-0.3253,-0.329,-0.3352,-0.3383,-0.3425,-0.347,-0.351,-0.3533,-0.3588,-0.3585,-0.3612,-0.3641,-0.3642,-0.365,-0.3674,-0.3645,-0.3603,-0.3602,-0.3656,-0.3656,-0.3656,0,-0.2912,-0.2994,-0.3034,-0.3062,-0.3155,-0.3172,-0.3211,-0.3273,-0.3306,-0.3358,-0.3379,-0.3435,-0.3465,-0.3507,-0.3566,-0.3577,-0.3615,-0.3643,-0.3642,-0.3641,-0.3647,-0.3646,-0.361,-0.3664,-0.3664,-0.3664,-0.3664,0,-0.2889,-0.2916,-0.3009,-0.3033,-0.3065,-0.3133,-0.3163,-0.3207,-0.3262,-0.3296,-0.3353,-0.3384,-0.346,-0.35,-0.3547,-0.3585,-0.3598,-0.3625,-0.3637,-0.362,-0.3617,-0.3638,-0.3641,-0.3663,-0.3663,-0.3664,-0.3664,0,-0.283,-0.2893,-0.2941,-0.3024,-0.3046,-0.3066,-0.3138,-0.3164,-0.3212,-0.3254,-0.3268,-0.3343,-0.3393,-0.3456,-0.3526,-0.3557,-0.3591,-0.3609,-0.357,-0.3577,-0.3573,-0.3572,-0.3549,-0.355,-0.3602,-0.3602,-0.3601,0,-0.2811,-0.2834,-0.292,-0.2947,-0.2985,-0.3028,-0.3061,-0.3128,-0.3161,-0.3233,-0.325,-0.3304,-0.3351,-0.3428,-0.3488,-0.3542,-0.3562,-0.3551,-0.3571,-0.3553,-0.3563,-0.3561,-0.3563,-0.3545,-0.3544,-0.3544,-0.3543,0,-0.2771,-0.2802,-0.2848,-0.2905,-0.2943,-0.2992,-0.3042,-0.3061,-0.3139,-0.3172,-0.3224,-0.3261,-0.3332,-0.3385,-0.3447,-0.3487,-0.3528,-0.3536,-0.3539,-0.3522,-0.3498,-0.3512,-0.3556,-0.3537,-0.3537,-0.3538,-0.3538,-0.3538,-0.2732,-0.2755,-0.282,-0.287,-0.2915,-0.2961,-0.299,-0.3042,-0.3086,-0.315,-0.3187,-0.3237,-0.3299,-0.3386,-0.3425,-0.3465,-0.3481,-0.3484,-0.3486,-0.3486,-0.348,-0.3492,-0.3477,-0.3477,-0.3477,-0.3477,-0.3478,0,-0.2696,-0.274,-0.2785,-0.2855,-0.2894,-0.293,-0.2988,-0.3018,-0.3062,-0.3116,-0.3161,-0.3221,-0.3273,-0.3338,-0.3394,-0.3414,-0.3434,-0.3427,-0.3426,-0.3435,-0.3463,-0.3455,-0.3409,-0.3409,-0.3409,-0.3409,-0.3409,-0.3409,-0.2681,-0.2722,-0.276,-0.2824,-0.2869,-0.2919,-0.2949,-0.2992,-0.3036,-0.31,-0.3144,-0.3186,-0.3245,-0.3306,-0.3355,-0.3373,-0.3391,-0.3378,-0.3401,-0.3426,-0.3432,-0.3438,-0.3431,-0.3381,-0.3381,-0.3369,-0.3369,-0.3369]},{"header":{"parameterUnit":"m.s-1","parameterCategory":1,"la1":30.2991,"la2":30.254,"lo1":-89.0895,"lo2":-89.0444,"dy":0.0017,"dx":0.0017,"nx":28,"ny":28,"refTime":"2024-04-01T09:00:00:Z","depth":0,"parameterNumber":3,"parameterNumberName":"V-component_of_WINDS"},"data":[0,0,0,0,0,0,0,0,0,0,0,0,0,0,0,0,0,0,0,0,0,0,0,0,0,0,0,0,0,0,0,0,0,0,0,0,0,0,0,0,0,0,0,0,0,0,0,0,0,0,0,0,0,0,0,0,0,0,5.56,5.5601,0,5.5692,5.5693,5.5694,5.5686,5.5685,5.5683,5.5682,5.5775,5.5779,5.5782,0,0,0,0,0,0,0,0,0,0,0,0,0,5.5417,5.542,5.56,5.5601,5.5602,5.5692,5.5693,5.5694,5.5686,5.5685,5.5683,5.5682,5.5774,5.5778,5.5783,0,0,0,0,0,0,0,0,0,0,0,0,0,5.5501,5.5421,5.56,5.5609,5.5611,5.5691,5.5693,5.5695,5.5687,5.5685,5.5683,5.5681,5.5772,5.5778,5.5783,5.586,0,0,5.5801,5.5803,0,0,0,0,0,0,0,0,5.5496,5.5508,5.5607,5.5609,5.5611,5.5675,5.5662,5.575,5.5687,5.5658,5.5682,5.568,5.5743,5.5751,5.5773,5.5864,5.5868,5.5801,5.5805,5.5807,5.5809,0,0,0,0,0,0,0,5.549,5.5504,5.5636,5.5608,5.5611,5.5608,5.5618,5.5679,5.5711,5.566,5.566,5.5671,5.5744,5.5768,5.5775,5.587,5.5801,5.5806,5.5809,5.5812,5.603,5.6032,0,0,0,0,0,0,5.5483,5.5499,5.5633,5.5639,5.5547,5.5613,5.5624,5.5657,5.5711,5.5717,5.5673,5.567,5.5759,5.5769,5.5778,5.5873,5.5807,5.5812,5.5815,5.6027,5.603,5.6033,0,0,0,0,0,0,5.5479,5.5495,5.563,5.5569,5.5586,5.5619,5.5655,5.566,5.5683,5.572,5.5726,5.5691,5.5758,5.5771,5.584,5.5876,5.5815,5.582,5.6024,5.6028,5.6031,5.6062,0,0,0,0,0,0,5.5473,5.5493,5.5523,5.557,5.5589,5.569,5.5658,5.5663,5.5693,5.5691,5.5739,5.5744,5.5757,5.5832,5.5846,5.5883,5.5824,5.6021,5.6026,5.603,5.6058,5.6066,5.6073,0,0,0,0,0,5.5467,5.5527,5.5524,5.5541,5.5627,5.5692,5.5703,5.5717,5.5696,5.5726,5.575,5.5743,5.587,5.5839,5.5855,5.5894,5.6019,5.6025,5.603,5.6054,5.6064,5.6073,0,0,0,0,0,0,5.5483,5.5533,5.5531,5.5608,5.5646,5.5691,5.5729,5.5727,5.5771,5.5767,5.5782,5.5793,5.5863,5.5885,5.585,5.5971,5.5942,5.595,5.5955,5.5964,5.5972,5.5966,5.5829,0,0,0,0,0,5.5496,5.5545,5.5586,5.565,5.5669,5.5696,5.5725,5.5732,5.5772,5.5788,5.5816,5.5855,5.5903,5.5935,5.5981,5.606,5.6071,5.6095,5.6103,5.6109,5.6116,5.6161,5.6173,5.605,5.605,5.605,0,0,5.5522,5.5556,5.5586,5.5654,5.5684,5.5735,5.5709,5.5763,5.5801,5.5796,5.5864,5.5886,5.593,5.6005,5.6039,5.6025,5.6153,5.6116,5.612,5.6125,5.6168,5.6179,5.619,5.6054,5.6053,5.6053,0,0,5.5596,5.5626,5.5684,5.5715,5.5761,5.5779,5.5792,5.5838,5.5853,5.5921,5.5919,5.5963,5.6046,5.6078,5.6105,5.6192,5.6188,5.6206,5.6247,5.629,5.63,5.6308,5.634,5.6352,5.6214,5.6214,5.6214,0,5.5623,5.57,5.5713,5.5769,5.5799,5.5797,5.5855,5.5884,5.5943,5.5965,5.5948,5.6053,5.6082,5.6165,5.6187,5.6208,5.6225,5.6201,5.6297,5.6306,5.6314,5.6345,5.6357,5.6216,5.6216,5.6216,5.6215,0,5.5731,5.5784,5.5825,5.5883,5.5918,5.5974,5.5996,5.603,5.6034,5.6053,5.6124,5.6159,5.6213,5.6233,5.6237,5.6317,5.6307,5.6294,5.6264,5.6328,5.6357,5.6369,5.6219,5.6218,5.6218,5.6217,0,0,5.5819,5.5884,5.5899,5.5925,5.5977,5.6018,5.6074,5.6128,5.6157,5.6197,5.6245,5.6316,5.6304,5.6335,5.6343,5.6381,5.6449,5.6363,5.6364,5.6379,5.654,5.6551,5.6564,5.6446,5.6448,5.645,5.6537,0,5.5899,5.6,5.6014,5.6103,5.6152,5.6151,5.62,5.6237,5.6256,5.6301,5.6322,5.6373,5.6353,5.6371,5.6409,5.6433,5.6482,5.6427,5.6491,5.6494,5.6482,5.6579,5.6591,5.6671,5.6548,5.655,5.6552,0,5.6006,5.6051,5.6145,5.619,5.6212,5.6256,5.6307,5.6349,5.6391,5.6402,5.6437,5.644,5.6499,5.6466,5.6548,5.651,5.6537,5.6553,5.6556,5.6564,5.6527,5.6591,5.6697,5.6709,5.657,5.6568,5.6567,0,5.6062,5.6146,5.6213,5.6236,5.629,5.6321,5.6345,5.6385,5.6416,5.646,5.6481,5.6531,5.6559,5.6598,5.6615,5.6589,5.6696,5.6664,5.6707,5.6707,5.6731,5.6729,5.6844,5.6746,5.6746,5.6746,5.6745,0,5.6151,5.6209,5.6239,5.6281,5.6346,5.6361,5.6425,5.6448,5.6483,5.6529,5.653,5.6574,5.6593,5.6639,5.6653,5.6719,5.6731,5.6742,5.6745,5.6743,5.6742,5.6762,5.6757,5.6749,5.6748,5.6748,5.6747,0,5.6225,5.6248,5.6321,5.6367,5.6379,5.6425,5.6464,5.6505,5.6524,5.6582,5.6596,5.6626,5.6681,5.6702,5.6768,5.6777,5.6854,5.6852,5.684,5.6841,5.6884,5.688,5.7016,5.7035,5.6924,5.6925,5.6926,0,5.6281,5.6326,5.6377,5.6408,5.6433,5.6483,5.6516,5.6532,5.6566,5.6618,5.6652,5.6706,5.6751,5.6838,5.6866,5.6917,5.6917,5.6961,5.6924,5.6921,5.6919,5.6917,5.6922,5.6968,5.6969,5.697,5.6971,0,5.6379,5.6388,5.6435,5.6486,5.6525,5.6566,5.6606,5.6632,5.6655,5.6692,5.6749,5.6783,5.6851,5.6906,5.6958,5.6983,5.6981,5.6982,5.6995,5.6994,5.6986,5.6992,5.686,5.6979,5.6978,5.6978,5.6977,5.6977,5.6447,5.6487,5.6529,5.6582,5.6613,5.6651,5.6691,5.6716,5.6763,5.682,5.6827,5.6888,5.6929,5.6999,5.7026,5.7073,5.7062,5.708,5.7085,5.709,5.7093,5.6977,5.7083,5.7083,5.7082,5.7082,5.7082,0,5.6545,5.6573,5.6621,5.6677,5.6719,5.6713,5.6757,5.6793,5.6846,5.6884,5.6929,5.6993,5.7046,5.7078,5.7131,5.7163,5.7164,5.7177,5.7175,5.7181,5.71,5.7084,5.7176,5.7176,5.7176,5.7176,5.7176,5.7176,5.6602,5.667,5.6684,5.6768,5.6794,5.6854,5.688,5.6915,5.6946,5.7018,5.7062,5.7083,5.7119,5.7175,5.7223,5.7231,5.7251,5.7266,5.7273,5.7196,5.7187,5.7178,5.7163,5.7269,5.7269,5.735,5.7351,5.7352]}]]